Regional Weather Roundup
Issued by NWS Boston, MA

Home | Current Version | Previous Version | Text Only | Print | Product List | Glossary On
Versions: 1 2 3 4 5 6 7 8 9 10 11 12 13 14 15 16 17 18 19 20 21 22 23 24 25 26 27
000
ASUS41 KBOX 310504
RWRBOX

REGIONAL WEATHER ROUNDUP
NATIONAL WEATHER SERVICE BOSTON/NORTON MA
100 AM EDT SAT JUL 31 2021

NOTE:  "FAIR" INDICATES FEW OR NO CLOUDS BELOW 12,000 FEET WITH NO
SIGNIFICANT WEATHER AND/OR OBSTRUCTIONS TO VISIBILITY.

MAZALL-310600-
EASTERN MASSACHUSETTS

CITY           SKY/WX    TMP DP  RH WIND       PRES   REMARKS
BOSTON         CLEAR     65  46  50 NW8       29.89S
BEVERLY        CLEAR     60  48  64 CALM      29.88F
LAWRENCE       CLEAR     60  47  61 W6        29.91S
BEDFORD        CLEAR     57  49  74 NW12      29.89S
BLUE HILL      NOT AVBL
NORWOOD        CLEAR     58  49  72 W5        29.89F
MARSHFIELD     CLEAR     63  48  59 NW6G12    29.88F
PLYMOUTH       CLEAR     60  47  61 W6        29.89S
TAUNTON        CLEAR     55  52  89 CALM      29.89S
NEW BEDFORD    CLEAR     61  51  70 NW5       29.89S
$$

MAZALL-310600-
CAPE COD AND THE ISLANDS

CITY           SKY/WX    TMP DP  RH WIND       PRES   REMARKS
FALMOUTH       CLEAR     61  46  59 NW5       29.89R
HYANNIS        CLEAR     66  50  56 NW12G20   29.86S
CHATHAM        CLEAR     66  47  50 VRB6      29.88S
PROVINCETOWN   CLEAR     65  50  58 NW20G26   29.88S
NANTUCKET      CLEAR     70  53  54 NW17G25   29.88R
MARTHAS VNYRD  CLEAR     65  50  58 NW12      29.88S
$$

MAZALL-310600-
CENTRAL AND WESTERN MASSACHUSETTS

CITY           SKY/WX    TMP DP  RH WIND       PRES   REMARKS
WORCESTER      CLEAR     56  44  64 NW7       29.94R
FITCHBURG      CLEAR     57  46  66 NW5       29.92F
ORANGE         CLEAR     52  48  86 CALM      29.95R
SPRINGFIELD    CLEAR     58  46  66 NW8       29.93R
WESTFIELD      CLEAR     59  51  75 NW5       29.95R
NORTH ADAMS    CLEAR     52  48  86 N3        29.95R
PITTSFIELD     CLEAR     53  47  79 SW3       29.96S
$$

RIZALL-310600-
RHODE ISLAND

CITY           SKY/WX    TMP DP  RH WIND       PRES   REMARKS
PROVIDENCE     PTCLDY    63  48  58 W5        29.92R
NEWPORT        CLEAR     63  47  55 N8        29.91R
BLOCK ISLAND   CLEAR     64  52  64 NW10      29.92S
SMITHFIELD     CLEAR     57  46  66 NW7       29.92F
WESTERLY       CLEAR     61  51  70 VRB5      29.91S
$$

CTZALL-310600-
CONNECTICUT

CITY           SKY/WX    TMP DP  RH WIND       PRES   REMARKS
BRADLEY INTL   CLEAR     60  49  66 NW7       29.95R
HARTFORD       CLEAR     64  48  56 VRB7      29.95R
BRIDGEPORT     CLEAR     65  48  54 NW9       29.95S
DANBURY        CLEAR     59  47  64 W3        29.99R
GROTON         CLEAR     63  50  62 NW14      29.92R
NEW HAVEN      CLEAR     66  49  54 N10G17    29.95S
CHESTER        FAIR      63  50  63 NW8       29.96R
MERIDEN        CLEAR     63  47  55 N3        29.95S
WILLIMANTIC    CLEAR     62  50  64 NW7       29.95R
OXFORD         CLEAR     59  48  67 NW5       29.98S
$$

MEZ002-015-021-024-NHZ003-005-008-011-012-014-VTZ005-008-310600-
NORTHERN NEW ENGLAND

CITY           SKY/WX    TMP DP  RH WIND       PRES   REMARKS
PORTLAND ME    PTCLDY    57  45  64 NW5       29.85R
BANGOR ME      PTCLDY    55  46  71 NW9       29.76S
CONCORD NH     CLOUDY    59  45  59 W7        29.89S
MANCHESTER NH  PTCLDY    60  45  57 W9        29.88S
NASHUA NH      CLEAR     58  50  75 W5        29.91S
PORTSMOUTH NH  PTCLDY    58  43  57 W7        29.87F
JAFFREY NH     CLEAR     58  43  57 VRB7      29.92F
KEENE NH       PTCLDY    52  48  86 CALM      29.93S
BURLINGTON VT  CLOUDY    61  45  55 W9        29.93S
MT. WASHINGTON NOT AVBL
$$

NYZ052-076-310600-
EASTERN NEW YORK

CITY           SKY/WX    TMP DP  RH WIND       PRES   REMARKS
ALBANY         PTCLDY    52  49  89 W7        29.97R
NEW YORK CITY  CLEAR     68  47  46 NW16      29.95S
$$

ANZALL-310600-
MARINE OBSERVATIONS

STATION/POSITION TIME  TEMP    WIND        PRES    VSBY  WAVE
                       AIR SEA DIR/SP/G                  HT/PER
                 (UTC) (F)     (DEG/KT/KT) (MB)    (MI)  (FT/S)
BOSTON BUOY      0440      66  310/ 16/ 17 1012.3
BUZZARDS BAY     0400          320/ 19/ 21 1013.2R
NANTUCKET SOUND  0440   70 74  330/ 17/ 23 1011.4R
MASS BAY-STELLWA 0404   64 64  310/ 12/ 14 1011.6R  1 7/8  2/ 3
ISLE OF SHOALS   0400   63     290/ 19/ 21 1010.5R
S OF BLOCK IS    0426      68                N/A           4/ 7
$$

......................KEY.........................
  SKY/WX - SKY CONDITION/PRESENT WEATHER
  TMP    - TEMPERATURE IN FAHRENHEIT
  DWPT   - DEWPOINT IN FAHRENHEIT
  RH     - RELATIVE HUMIDITY IN PERCENT
  WIND   - DIRECTION AND SPEED IN MPH
  PRES   - MEAN SEA LEVEL PRESSURE IN INCHES OF HG
  WCI    - WIND CHILL INDEX
  VSB    - VISIBILITY IN MILES
  HX     - HEAT INDEX
  TC     - TEMPERATURE IN CELSIUS
  VRB    - VARIABLE WIND DIRECTION
  N/A    - NOT AVAILABLE



USA.gov is the U.S. government's official web portal to all federal, state and local government web resources and services.